Flag for India Weather past 2 weeks in Navi Mumbai, Maharashtra, India

Now
72 °F

Passing clouds.


Feels Like: 76 °F
Forecast: 65 / 87 °F
Wind: 6 mph from North

Location: Bombay / Santacruz

Current Time: Jan 27, 2015 at 2:57:56 AM

Latest Report: Jan 27, 2015 at 1:40 AM


Visibility: 2 mi

Pressure: 29.95 "Hg

Humidity: 57%

Dew point: 55 °F

Location of Navi MumbaiLocation

Historic Weather in Navi Mumbai — Graph

°F

Navi Mumbai temperature yesterday

Maximum temperature yesterday: 84 °F (at 2:40 PM)
Minimum temperature yesterday: 72 °F (at 3:40 AM)
Average temperature yesterday: 76 °F

Past Weeks' High & Low Weather Summary

 TemperatureHumidityPressure
High88 °F (Jan 17, 1:40 PM)94% (Jan 20, 4:40 AM)30.09 "Hg (Jan 20, 4:40 AM)
Low66 °F (Jan 15, 7:40 AM)24% (Jan 12, 11:40 AM)29.86 "Hg (Jan 14, 2:40 PM)
Average77 °F55%29.96 "Hg
* Reported Jan 12 12:40 AM — Jan 27 12:40 AM, Navi Mumbai, Weather by CustomWeather, © 2014

Note: Actual official high and low records may vary slightly from our data, if they occured in-between our weather recording intervals... More about our weather records

Advertising

Navi Mumbai weather history for previous 24 hours

 ConditionsComfort  
Time TempWeatherWind HumidityBarometerVisibility
12:40 AM
Jan 27
72 °FPassing clouds.6 mph57%29.98 "Hg1 mi
11:40 PM
Jan 26
73 °FPassing clouds.7 mph53%29.98 "Hg1 mi
10:40 PM73 °FPassing clouds.8 mph50%30.01 "Hg1 mi
9:40 PM75 °FPassing clouds.9 mph54%30.01 "Hg1 mi
8:40 PM75 °FHaze.6 mph61%29.98 "Hg1 mi
7:40 PM75 °FHaze.5 mph65%29.95 "Hg1 mi
6:40 PM77 °FPassing clouds.6 mph61%29.92 "Hg1 mi
5:40 PM81 °FPassing clouds.8 mph51%29.92 "Hg1 mi
4:40 PM79 °FScattered clouds.9 mph54%29.92 "Hg2 mi
3:40 PM81 °FScattered clouds.8 mph54%29.95 "Hg2 mi
2:40 PM84 °FScattered clouds.12 mph45%29.95 "Hg2 mi
12:40 PM82 °FScattered clouds.6 mph42%30.01 "Hg2 mi
11:40 AM81 °FScattered clouds.3 mph48%30.04 "Hg1 mi
10:40 AM79 °FScattered clouds.6 mph51%30.04 "Hg1 mi
9:40 AM75 °FScattered clouds.No wind57%30.04 "Hg1 mi
8:40 AM72 °FScattered clouds.No wind65%30.04 "Hg1 mi
7:40 AM72 °FPassing clouds.5 mph61%30.01 "Hg1 mi
6:40 AM72 °FPassing clouds.5 mph65%29.98 "Hg1 mi
5:40 AM72 °FPassing clouds.No wind65%29.98 "Hg1 mi
4:40 AM72 °FPassing clouds.5 mph65%29.95 "Hg1 mi
3:40 AM72 °FPassing clouds.7 mph73%29.98 "Hg1 mi
2:40 AM73 °FPassing clouds.8 mph78%29.98 "Hg1 mi
Weather by CustomWeather, © 2014

See weather overviewHow to use our weather pages